Volver al catálogo

MINOTAUR R/B

ActivoLEO
NORAD 26066·ROCKET BODY·🇺🇸 United States

Lanzado Jan 27, 2000 desde Vandenberg Space Force Base

Loading…

Próximos Pases (próximas 24 horas)

TLE

ActualizadoSource: Space-Track

Época: Sep 14, 2026, 16:17 UTC

1 26066U 00004F   26257.67909638  .00000080  00000-0  44842-4 0  9998
2 26066 100.2186 231.5390 0033086 104.6336 255.8518 14.39040471397125

Sigue MINOTAUR R/B en tiempo real con AllMySat

Download on the App Store